Вернуться в каталог

COSMOS 839 DEB

АктивенLEO
NORAD 13501·DEBRIS·🇷🇺 Russia

Запущен Jul 8, 1976 с Plesetsk Cosmodrome

Loading…

Ближайшие Пролёты (ближайшие 24 часа)

TLE

СвежийSource: Space-Track

Эпоха: Sep 14, 2026, 16:20 UTC

1 13501U 76067BB  26257.68065095 -.00000371  00000-0 -12270-2 0  9994
2 13501  66.0348 355.1630 0614283  97.2194  45.5603 12.40281957 51354

Отслеживайте COSMOS 839 DEB в реальном времени с AllMySat

Download on the App Store